Weather History for KRND - December, 2011

Change the Weather History Date:

Wednesday, December 14, 2011

  Actual Average Record
Temperature  
Mean Temperature 72 °F -  
Max Temperature 75 °F 61 °F 80 °F (1996)
Min Temperature 68 °F 39 °F 28 °F (1997)
Cooling Degree Days 6    
Growing Degree Days 22 (Base 50)    
Moisture  
Dew Point 67 °F    
Average Humidity 92    
Maximum Humidity 100    
Minimum Humidity 73    
Precipitation  
Precipitation 0.08 in - - ()
Sea Level Pressure  
Sea Level Pressure 29.99 in    
Wind  
Wind Speed 14 mph (SSE)    
Max Wind Speed 20 mph    
Max Gust Speed 23 mph    
Visibility 9 miles    
Events Rain    
Averages and records for this station are not official NWS values.
T = Trace of Precipitation, MM = Missing Value Source: NWS Daily Summary

Daily Weather History Graph

Daily Weather History Graph

Search for Another Location

Airport or City:

Trip Planner

Search our weather history database for the weather conditions in past years. The results will help you decide how hot, cold, wet, or windy it might be!

Date:

Astronomy

Dec. 14, 2011 Rise Set
Actual Time 7:19 AM CST 5:35 PM CST
Civil Twilight 6:53 AM CST 6:02 PM CST
Nautical Twilight 6:23 AM CST 6:31 PM CST
Astronomical Twilight 5:54 AM CST 7:00 PM CST
Moon 9:43 PM CST (12/14) 10:17 AM CST (12/14)
Length of Visible Light 11h 08m
Length of Day
10h 16m
Waning Gibbous, 83% of the Moon is Illuminated
Dec 14
Waning Gibbous
Dec 17
Last Quarter
Dec 24
New
Jan 1
First Quarter
Jan 9
Full

Hourly Weather History & Observations

Time (CST) Temp. Dew Point Humidity Pressure Visibility Wind Dir Wind Speed Gust Speed Precip Events Conditions
12:01 AM 68.0 °F 68.0 °F 100% 30.06 in 9.0 mi SE 15.0 mph - N/A Rain Light Rain
12:03 AM 68.0 °F 68.0 °F 100% 30.06 in 8.0 mi SSE 16.1 mph - N/A   Light Drizzle
12:08 AM 68.0 °F 68.0 °F 100% 30.06 in 6.0 mi SE 17.3 mph - N/A   Light Drizzle
12:20 AM 68.0 °F 68.0 °F 100% 30.06 in 5.0 mi SE 12.7 mph - N/A Rain Light Rain
12:26 AM 68.0 °F 68.0 °F 100% 30.06 in 7.0 mi SSE 13.8 mph - N/A   Light Drizzle
12:31 AM 68.0 °F 68.0 °F 100% 30.05 in 9.0 mi SSE 12.7 mph - N/A   Overcast
12:32 AM 68.0 °F 68.0 °F 100% 30.05 in 9.0 mi SSE 12.7 mph - N/A   Light Drizzle
12:39 AM 68.0 °F 68.0 °F 100% 30.05 in 4.0 mi SSE 12.7 mph - N/A Rain Light Rain
12:41 AM 68.0 °F 68.0 °F 100% 30.05 in 4.0 mi SSE 16.1 mph - N/A Rain Light Rain
12:44 AM 68.0 °F 68.0 °F 100% 30.05 in 5.0 mi SSE 15.0 mph - N/A Rain Light Rain
12:55 AM 68.0 °F 67.6 °F 99% 30.05 in 6.0 mi SSE 16.1 mph - 0.03 in   Light Drizzle
1:24 AM 68.0 °F 68.0 °F 100% 30.04 in 7.0 mi SSE 13.8 mph - N/A   Light Drizzle
1:35 AM 68.0 °F 68.0 °F 100% 30.04 in 5.0 mi SSE 12.7 mph - N/A Rain Light Rain
1:36 AM 68.0 °F 68.0 °F 100% 30.04 in 4.0 mi SSE 12.7 mph - N/A Rain Light Rain
1:39 AM 68.0 °F 68.0 °F 100% 30.04 in 5.0 mi SSE 12.7 mph - N/A Rain Light Rain
1:40 AM 68.0 °F 68.0 °F 100% 30.04 in 5.0 mi SSE 12.7 mph - N/A Rain Light Rain
1:50 AM 68.0 °F 68.0 °F 100% 30.04 in 4.0 mi SSE 11.5 mph - N/A Rain Light Rain
1:51 AM 68.0 °F 68.0 °F 100% 30.04 in 5.0 mi SSE 12.7 mph - N/A Rain Light Rain
1:52 AM 68.0 °F 68.0 °F 100% 30.04 in 5.0 mi SSE 12.7 mph - N/A   Light Drizzle
1:55 AM 68.2 °F 68.2 °F 100% 30.04 in 6.0 mi SSE 12.7 mph - 0.02 in   Light Drizzle
2:19 AM 68.0 °F 68.0 °F 100% 30.03 in 10.0 mi South 13.8 mph - N/A   Overcast
2:20 AM 68.0 °F 68.0 °F 100% 30.03 in 10.0 mi South 13.8 mph - N/A   Overcast
2:35 AM 68.0 °F 68.0 °F 100% 30.03 in 9.0 mi SSE 11.5 mph - N/A   Light Drizzle
2:38 AM 68.0 °F 68.0 °F 100% 30.03 in 6.0 mi South 11.5 mph - N/A   Light Drizzle
2:44 AM 68.0 °F 68.0 °F 100% 30.03 in 5.0 mi South 16.1 mph - N/A   Light Drizzle
2:47 AM 68.0 °F 68.0 °F 100% 30.03 in 6.0 mi South 15.0 mph - N/A   Light Drizzle
2:55 AM 68.4 °F 68.4 °F 100% 30.03 in 10.0 mi South 15.0 mph - 0.02 in   Light Drizzle
2:56 AM 68.0 °F 68.0 °F 100% 30.03 in 10.0 mi South 13.8 mph - N/A   Overcast
3:00 AM 68.0 °F 68.0 °F 100% 30.03 in 10.0 mi South 12.7 mph - N/A   Overcast
3:06 AM 68.0 °F 68.0 °F 100% 30.02 in 10.0 mi South 12.7 mph - N/A   Overcast
3:07 AM 68.0 °F 68.0 °F 100% 30.02 in 10.0 mi South 12.7 mph - N/A   Overcast
3:12 AM 68.0 °F 68.0 °F 100% 30.02 in 10.0 mi South 12.7 mph - N/A   Overcast
3:14 AM 68.0 °F 68.0 °F 100% 30.02 in 10.0 mi South 12.7 mph - N/A   Overcast
3:18 AM 68.0 °F 68.0 °F 100% 30.02 in 10.0 mi South 12.7 mph - N/A   Overcast
3:24 AM 68.0 °F 68.0 °F 100% 30.02 in 10.0 mi South 13.8 mph - N/A   Overcast
3:34 AM 68.0 °F 68.0 °F 100% 30.01 in 10.0 mi South 15.0 mph - N/A   Overcast
3:44 AM 68.0 °F 68.0 °F 100% 30.01 in 10.0 mi South 15.0 mph - N/A   Overcast
3:48 AM 68.0 °F 68.0 °F 100% 30.01 in 10.0 mi South 15.0 mph - N/A   Light Drizzle
3:50 AM 68.0 °F 68.0 °F 100% 30.01 in 9.0 mi South 16.1 mph - N/A   Light Drizzle
3:51 AM 68.0 °F 68.0 °F 100% 30.00 in 9.0 mi South 15.0 mph - N/A   Light Drizzle
3:54 AM 68.0 °F 68.0 °F 100% 30.00 in 9.0 mi SSE 16.1 mph - N/A   Light Drizzle
3:57 AM 68.0 °F 68.0 °F 100% 30.00 in 9.0 mi SSE 16.1 mph - N/A   Light Drizzle
4:00 AM 68.0 °F 68.0 °F 100% 30.00 in 10.0 mi SSE 17.3 mph - N/A   Overcast
4:03 AM 68.0 °F 68.0 °F 100% 30.00 in 10.0 mi SSE 17.3 mph - N/A   Mostly Cloudy
4:04 AM 68.0 °F 68.0 °F 100% 30.00 in 10.0 mi South 17.3 mph - N/A   Mostly Cloudy
4:05 AM 68.0 °F 68.0 °F 100% 30.00 in 10.0 mi South 17.3 mph - N/A   Mostly Cloudy
4:08 AM 68.0 °F 68.0 °F 100% 30.00 in 10.0 mi South 17.3 mph - N/A   Mostly Cloudy
4:16 AM 68.0 °F 68.0 °F 100% 29.99 in 10.0 mi South 18.4 mph - N/A   Overcast
4:17 AM 68.0 °F 68.0 °F 100% 29.99 in 10.0 mi South 19.6 mph - N/A   Overcast
4:19 AM 68.0 °F 68.0 °F 100% 29.99 in 9.0 mi South 18.4 mph - N/A   Light Drizzle
4:21 AM 68.0 °F 68.0 °F 100% 29.99 in 9.0 mi South 16.1 mph - N/A   Light Drizzle
4:22 AM 68.0 °F 68.0 °F 100% 29.99 in 9.0 mi South 16.1 mph - N/A   Light Drizzle
4:27 AM 68.0 °F 68.0 °F 100% 29.99 in 9.0 mi South 18.4 mph - N/A   Overcast
4:34 AM 68.0 °F 68.0 °F 100% 29.99 in 9.0 mi South 16.1 mph - N/A   Overcast
4:40 AM 68.0 °F 68.0 °F 100% 29.99 in 10.0 mi South 16.1 mph - N/A   Overcast
4:41 AM 68.0 °F 68.0 °F 100% 29.99 in 10.0 mi South 15.0 mph - N/A   Overcast
4:55 AM 68.4 °F 68.0 °F 99% 29.99 in 10.0 mi South 17.3 mph - 0.00 in   Overcast
5:00 AM 68.0 °F 68.0 °F 100% 29.99 in 10.0 mi South 18.4 mph - N/A   Overcast
5:02 AM 68.0 °F 68.0 °F 100% 29.99 in 10.0 mi South 17.3 mph - N/A   Overcast
5:08 AM 68.0 °F 68.0 °F 100% 29.99 in 10.0 mi South 17.3 mph - N/A   Overcast
5:14 AM 68.0 °F 68.0 °F 100% 29.99 in 10.0 mi South 18.4 mph - N/A   Overcast
5:17 AM 68.0 °F 68.0 °F 100% 29.99 in 10.0 mi South 17.3 mph - N/A   Overcast
5:25 AM 68.0 °F 68.0 °F 100% 29.98 in 10.0 mi SSE 18.4 mph - N/A   Overcast
5:28 AM 68.0 °F 68.0 °F 100% 29.98 in 10.0 mi South 18.4 mph - N/A   Overcast
5:29 AM 68.0 °F 68.0 °F 100% 29.98 in 10.0 mi South 19.6 mph - N/A   Overcast
5:32 AM 68.0 °F 68.0 °F 100% 29.99 in 10.0 mi South 16.1 mph - N/A   Overcast
5:55 AM 68.7 °F 67.8 °F 97% 29.99 in 10.0 mi South 15.0 mph - N/A   Overcast
6:55 AM 69.1 °F 67.3 °F 94% 30.01 in 10.0 mi SSE 16.1 mph - N/A   Overcast
7:25 AM 69.8 °F 68.0 °F 94% 30.01 in 10.0 mi SSE 13.8 mph - N/A   Overcast
7:27 AM 69.8 °F 68.0 °F 94% 30.01 in 10.0 mi South 15.0 mph - N/A   Overcast
7:32 AM 69.8 °F 68.0 °F 94% 30.01 in 10.0 mi South 12.7 mph - N/A   Overcast
7:35 AM 69.8 °F 68.0 °F 94% 30.01 in 10.0 mi South 15.0 mph - N/A   Overcast
7:55 AM 69.1 °F 67.1 °F 93% 30.02 in 10.0 mi SSE 12.7 mph - N/A   Overcast
8:41 AM 69.8 °F 66.2 °F 88% 30.02 in 10.0 mi SSE 15.0 mph - N/A   Overcast
8:55 AM 70.0 °F 66.9 °F 90% 30.02 in 10.0 mi SSE 15.0 mph - N/A   Overcast
9:27 AM 69.8 °F 68.0 °F 94% 30.02 in 10.0 mi SSE 12.7 mph 23.0 mph N/A   Overcast
9:40 AM 69.8 °F 68.0 °F 94% 30.03 in 10.0 mi South 15.0 mph - N/A   Overcast
9:55 AM 70.0 °F 66.9 °F 90% 30.03 in 3.0 mi South 16.1 mph - N/A Rain Light Rain
10:08 AM 69.8 °F 66.2 °F 88% 30.03 in 10.0 mi South 16.1 mph - N/A   Overcast
10:29 AM 69.8 °F 66.2 °F 88% 30.02 in 10.0 mi South 15.0 mph - N/A   Light Drizzle
10:38 AM 69.8 °F 66.2 °F 88% 30.02 in 4.0 mi South 13.8 mph 23.0 mph N/A   Light Drizzle
10:49 AM 69.8 °F 68.0 °F 94% 30.03 in 2.5 mi South 11.5 mph - N/A   Light Drizzle
10:55 AM 69.8 °F 67.3 °F 92% 30.02 in 2.5 mi South 17.3 mph - 0.01 in   Light Drizzle
11:07 AM 69.8 °F 68.0 °F 94% 30.02 in 7.0 mi South 15.0 mph - N/A   Overcast
11:08 AM 69.8 °F 68.0 °F 94% 30.02 in 7.0 mi South 16.1 mph - N/A   Overcast
11:16 AM 69.8 °F 68.0 °F 94% 30.01 in 10.0 mi South 13.8 mph - N/A   Overcast
11:23 AM 69.8 °F 68.0 °F 94% 30.01 in 10.0 mi South 12.7 mph - N/A   Overcast
11:31 AM 69.8 °F 68.0 °F 94% 30.00 in 10.0 mi South 11.5 mph - N/A   Overcast
11:55 AM 71.2 °F 67.3 °F 87% 29.99 in 10.0 mi South 17.3 mph - 0.00 in   Overcast
11:56 AM 71.6 °F 68.0 °F 88% 29.99 in 10.0 mi South 18.4 mph - N/A   Light Drizzle
12:17 PM 71.6 °F 68.0 °F 88% 29.98 in 10.0 mi South 12.7 mph - N/A   Overcast
12:41 PM 71.6 °F 68.0 °F 88% 29.95 in 10.0 mi South 15.0 mph - N/A   Overcast
12:53 PM 71.6 °F 66.2 °F 83% 29.94 in 10.0 mi South 13.8 mph - N/A   Overcast
12:55 PM 72.3 °F 66.7 °F 83% 29.94 in 10.0 mi South 16.1 mph - 0.00 in   Overcast
1:14 PM 73.4 °F 66.2 °F 78% 29.93 in 10.0 mi South 12.7 mph - N/A   Overcast
1:55 PM 74.3 °F 65.8 °F 75% 29.91 in 10.0 mi South 17.3 mph - N/A   Overcast
2:21 PM 75.2 °F 66.2 °F 73% 29.91 in 10.0 mi South 11.5 mph - N/A   Overcast
2:55 PM 74.8 °F 66.2 °F 74% 29.91 in 10.0 mi SSE 11.5 mph - N/A   Overcast
3:46 PM 75.2 °F 66.2 °F 73% 29.90 in 10.0 mi SSE 10.4 mph - N/A   Overcast
3:48 PM 75.2 °F 66.2 °F 73% 29.90 in 10.0 mi SSE 10.4 mph - N/A   Overcast
3:49 PM 75.2 °F 66.2 °F 73% 29.90 in 10.0 mi SSE 11.5 mph - N/A   Overcast
3:53 PM 75.2 °F 66.2 °F 73% 29.90 in 10.0 mi SSE 10.4 mph - N/A   Overcast
3:55 PM 74.7 °F 66.4 °F 75% 29.90 in 10.0 mi SSE 11.5 mph - N/A   Overcast
4:39 PM 73.4 °F 66.2 °F 78% 29.91 in 10.0 mi SE 5.8 mph - N/A   Overcast
4:42 PM 73.4 °F 66.2 °F 78% 29.91 in 10.0 mi SE 8.1 mph - N/A   Overcast
4:46 PM 73.4 °F 66.2 °F 78% 29.91 in 10.0 mi SE 8.1 mph - N/A   Overcast
4:47 PM 73.4 °F 66.2 °F 78% 29.91 in 10.0 mi SE 6.9 mph - N/A   Overcast
4:55 PM 73.2 °F 67.1 °F 81% 29.91 in 10.0 mi SE 5.8 mph - N/A   Overcast
5:01 PM 73.4 °F 66.2 °F 78% 29.91 in 10.0 mi SE 6.9 mph - N/A   Overcast
5:20 PM 73.4 °F 66.2 °F 78% 29.92 in 10.0 mi SE 6.9 mph - N/A   Overcast
5:26 PM 73.4 °F 66.2 °F 78% 29.92 in 10.0 mi SE 5.8 mph - N/A   Overcast
5:39 PM 73.4 °F 66.2 °F 78% 29.92 in 10.0 mi SE 8.1 mph - N/A   Overcast
5:43 PM 73.4 °F 66.2 °F 78% 29.93 in 10.0 mi SE 10.4 mph - N/A   Overcast
5:45 PM 73.4 °F 66.2 °F 78% 29.93 in 10.0 mi SE 10.4 mph - N/A   Overcast
5:55 PM 72.5 °F 66.9 °F 83% 29.93 in 10.0 mi SE 10.4 mph - N/A   Overcast
6:16 PM 73.4 °F 66.2 °F 78% 29.94 in 10.0 mi SE 11.5 mph - N/A   Overcast
6:20 PM 71.6 °F 66.2 °F 83% 29.93 in 10.0 mi ESE 10.4 mph - N/A   Overcast
6:23 PM 71.6 °F 66.2 °F 83% 29.93 in 10.0 mi SE 11.5 mph - N/A   Overcast
6:34 PM 71.6 °F 66.2 °F 83% 29.93 in 10.0 mi SE 12.7 mph - N/A   Mostly Cloudy
6:35 PM 71.6 °F 66.2 °F 83% 29.93 in 10.0 mi SE 11.5 mph - N/A   Mostly Cloudy
6:38 PM 71.6 °F 66.2 °F 83% 29.94 in 10.0 mi SE 10.4 mph - N/A   Mostly Cloudy
6:39 PM 71.6 °F 66.2 °F 83% 29.94 in 10.0 mi SE 10.4 mph - N/A   Mostly Cloudy
6:41 PM 71.6 °F 66.2 °F 83% 29.94 in 10.0 mi SE 11.5 mph - N/A   Mostly Cloudy
6:42 PM 71.6 °F 66.2 °F 83% 29.94 in 10.0 mi SE 12.7 mph - N/A   Mostly Cloudy
6:55 PM 71.8 °F 66.4 °F 83% 29.94 in 10.0 mi SSE 13.8 mph - N/A   Mostly Cloudy
6:56 PM 71.6 °F 66.2 °F 83% 29.94 in 10.0 mi SSE 12.7 mph - N/A   Mostly Cloudy
7:08 PM 71.6 °F 66.2 °F 83% 29.95 in 10.0 mi SSE 11.5 mph - N/A   Mostly Cloudy
7:52 PM 71.6 °F 66.2 °F 83% 29.96 in 10.0 mi SE 13.8 mph - N/A   Overcast
7:55 PM 70.9 °F 66.6 °F 86% 29.96 in 10.0 mi SE 12.7 mph - N/A   Overcast
8:15 PM 71.6 °F 66.2 °F 83% 29.96 in 10.0 mi SE 8.1 mph - N/A   Overcast
8:55 PM 70.2 °F 66.2 °F 87% 29.98 in 10.0 mi SSE 13.8 mph - N/A   Overcast
9:55 PM 69.6 °F 66.4 °F 89% 29.99 in 10.0 mi SSE 12.7 mph - N/A   Overcast
10:31 PM 69.8 °F 66.2 °F 88% 30.00 in 10.0 mi South 11.5 mph - N/A   Overcast
10:55 PM 69.3 °F 66.6 °F 91% 30.00 in 10.0 mi SSE 11.5 mph - N/A   Overcast
11:55 PM 69.1 °F 66.7 °F 92% 30.00 in 10.0 mi South 12.7 mph - N/A   Overcast